Showing default

GSAT 7A, 43864

Orbit data source: Space-Track

GSAT 7A, 43864 is a payload satellite owned by ISRO (IN) in GEO that was launched on Wed, 19 Dec 2018 UTC via a GSLV MK II launch vehicle from the Sirharikota (SRI). Payload-class satellites include a variety of spacecraft equipped with specific instruments for various scientific and technological missions. These include communications satellites like Starlink; space stations such as the ISS; scientific satellites like the Hubble; Earth observation satellites from companies like Planet Labs, Umbra, and HawkEye 360; GPS; miniature CubeSats for education and research; and military/defense satellites.

Not visible in the next 10 days
Identifier
43864, 2018-105A
Orbit
GEO
Country
Flag of ININ / IND
Related business
Manufacturer
ISRO
Mission
Operational Defense Communications
Bus & Motor
I2K, ISRO LAM
Mass
2,250 kg wet, ~1,000 kg dry
Launch date (UTC)
2018-12-19 (7 years ago)
Launch vehicle
GSLV MK II
Launch site
Sirharikota (SRI)
Object type
Payload
Rocket body
Debris
Shape & HBR
Box + 2 Pan, 4.8 m
Radar Cross Section
8.526 m², Small (<0.1 m²)

Expand to show TLE details & history
Last TLE update: 2 days ago

TLE from 2 days ago
0 GSAT 7A
1 43864U 18105A   25300.41408595  .00000037  00000-0  00000-0 0  9996
2 43864   0.0393 258.7713 0002972 310.9009  38.2913  1.00273505 25115
Epoch: 2025-10-27T09:56Z
TLE epoch observation values (Epoch: 2025-10-27T09:56:17.026Z)
Latitude
-0.00914°
Longitude
62.86173°
Altitude
35,775.714 km
Speed
3.075 km/s
True Right ascension
16h 31m 47s
True Declination
0° 00' 33"
Sunlit
Object was in daylight at epoch
Visualization orbit readout
Latitude
Unknown
Longitude
Unknown
Altitude
Unknown
Speed
Unknown
Apparent Right ascension
Unknown
Apparent Declination
Unknown
Sunlit
N/A
Visualization observer readout
Local Sidereal Time
14:00:42
Azimuth
Unknown
Elevation
Unknown
Doppler factor
Unknown
Orbital elements
Apogee altitude
35,799.715 km
Perigee altitude
35,774.652 km
Semi-major axis
42,165.32 km
Eccentricity
0.0003
Inclination
0.0393°
RAAN
258.7713°
Arg. of periapsis
310.9009°
True anomaly
38.31241°
Mean anomaly
38.2913°
Eccentric anomaly
38.30185°
Mean motion
0.25067 °/min
Orbital period
1,436.13 mins
BSTAR
0
Loading maneuver chart data...
Computing Atmospheric mass density...
Loading historical data...
Loading historical data...
Loading historical data...
Loading historical data...
Loading historical data...
Loading historical data...
Loading historical data...
Other satellites on launch #105 in the year 2018 (2018-12-19 UTC)

Documentation

Showing up to 5 results
|